EHI
14 14 13 8 6 6 6 5 4 4 4 4 5 4 1 1 2 3 3 3 2 2 2 1 0 1 2 3 4 3 1 1 1 1 2 3 2 1 0 0 0 0 0
14 14 14 11 8 6 7 7 8 6 5 4 5 4 2 2 2 3 3 3 1 1 1 0 0 0 1 1 2 2 1 1 1 2 3 3 2 1 0 0 0 0 0
12 13 14 13 10 8 8 9 10 9 7 6 5 4 3 4 4 4 3 2 1 0 0 0 0 0 0 0 1 1 1 1 2 3 3 3 2 1 0 0 0 0 0
8 9 12 14 12 10 8 9 10 10 9 8 6 6 5 5 6 5 3 1 0 0 0 0 0 0 0 0 0 0 1 2 3 3 3 2 1 0 0 0 0 0 0
7 8 10 13 14 12 11 10 9 9 8 7 7 7 7 7 6 5 3 1 0 0 0 0 0 0 0 0 0 1 2 3 3 3 3 2 1 0 0 0 0 0 0
8 9 11 13 14 13 12 11 8 6 6 6 6 7 8 7 4 3 3 2 1 0 0 0 0 0 0 0 0 1 2 2 3 3 3 2 1 0 0 0 0 0 0
9 10 12 13 13 13 11 9 7 5 5 5 5 6 7 5 3 1 1 1 1 0 1 1 1 0 0 0 0 0 1 1 1 2 2 2 1 0 0 0 0 0 0
8 9 10 11 12 12 10 8 7 6 5 5 5 5 5 4 2 0 0 0 0 0 1 2 2 1 0 0 0 0 0 0 0 1 1 1 0 0 0 0 0 0 0
6 7 8 9 10 10 9 9 9 7 6 4 3 4 5 4 2 0 0 0 0 1 2 3 2 1 0 0 0 0 0 0 0 0 0 0 0 0 0 0 0 0 0
4 5 5 6 6 7 8 9 9 8 5 3 1 1 3 4 2 0 0 0 1 2 3 3 2 1 0 0 0 0 0 0 0 0 0 0 0 0 0 0 0 0 0
2 2 2 2 3 5 6 8 8 7 5 3 1 1 2 3 1 0 0 1 1 2 3 3 3 1 0 0 0 0 0 0 0 0 0 0 0 0 0 0 0 0 0
0 0 0 0 1 4 6 7 8 7 5 2 2 2 3 3 1 0 0 0 1 2 3 3 2 1 0 0 0 0 0 0 0 0 0 0 0 0 0 0 0 0 0
0 0 0 0 1 3 7 8 7 6 4 3 3 3 3 2 1 0 0 0 1 2 4 3 1 0 0 0 0 0 0 0 0 0 0 0 0 0 0 0 0 0 0
0 0 0 0 0 3 7 9 8 6 5 5 4 3 2 3 2 2 2 2 1 2 3 2 0 0 0 0 0 0 0 0 0 0 0 0 0 0 0 0 0 0 0
0 0 0 0 1 3 5 7 7 6 5 5 4 3 3 3 2 2 3 3 2 2 3 2 1 1 1 1 0 0 0 0 0 0 0 0 0 0 0 0 0 0 0
0 0 0 1 2 3 4 5 5 4 3 3 3 3 3 3 1 1 1 1 1 1 3 3 3 2 2 2 1 0 0 0 0 0 0 0 0 0 0 0 0 0 0
0 0 0 1 2 2 3 4 4 3 2 1 1 2 2 2 1 0 0 0 0 1 2 3 3 3 3 3 2 1 0 0 0 0 0 0 0 0 0 0 0 0 0
0 0 0 1 2 2 3 3 4 4 3 2 1 1 1 1 0 0 0 1 1 1 2 3 3 3 3 3 2 1 0 0 0 0 0 0 0 0 0 0 0 0 0
0 0 0 1 1 1 2 3 3 4 3 3 2 1 0 0 0 0 1 2 2 2 3 3 3 3 3 2 1 0 0 0 0 0 0 0 0 0 0 0 0 0 0
0 0 0 0 1 1 2 3 3 3 3 3 3 2 1 1 1 0 1 2 3 3 3 3 3 3 2 1 0 0 0 0 0 0 0 0 0 0 0 0 0 0 0
0 0 0 0 1 2 3 3 3 3 3 3 3 3 2 2 2 1 1 2 3 3 3 3 3 2 1 0 0 0 0 0 0 0 0 0 0 0 0 0 0 0 0
0 0 0 0 1 2 3 3 3 3 3 3 3 3 2 3 2 1 1 2 2 2 2 2 1 1 0 0 0 0 0 0 0 0 0 0 0 0 0 0 0 0 0
0 0 0 0 0 1 2 2 3 3 3 3 3 3 3 2 2 1 0 1 1 1 1 1 0 0 0 0 0 0 0 0 0 0 0 0 0 0 0 0 0 0 0
0 0 0 0 0 0 1 1 1 2 2 2 2 2 2 1 1 0 0 0 0 0 0 0 0 0 0 0 0 0 0 0 0 0 0 0 0 0 0 0 0 0 0
0 0 0 0 0 0 0 0 0 1 1 1 1 1 1 0 0 0 0 0 0 0 0 0 0 0 0 0 0 0 0 0 0 0 0 0 0 0 0 0 0 0 0
0 0 0 0 0 0 0 0 0 0 0 0 0 0 0 0 0 0 0 0 0 0 0 0 0 0 0 0 0 0 0 0 0 0 0 0 0 0 0 0 0 0 0
Wind_Speed
6 5 5 4 4 3 3 4 4 3 3 3 3 3 2 2 2 2 2 1 1 1 1 1 2 2 1 1 1 1 1 2 3 3 2 3 3 3 3 2 2 2 2
5 5 5 4 4 4 4 4 4 4 4 4 4 3 3 3 2 3 3 2 2 2 2 2 2 1 2 1 1 1 2 2 2 3 3 2 2 3 2 3 3 2 2
4 5 5 5 5 5 4 3 4 4 3 3 4 4 4 4 3 3 3 3 3 3 3 3 3 2 2 2 2 2 2 2 2 2 3 2 2 2 2 2 3 2 2
3 5 5 6 6 5 4 3 3 4 4 4 4 4 4 4 4 4 3 3 3 4 3 4 4 4 4 4 3 3 2 2 1 2 2 2 2 2 1 2 2 2 3
3 3 4 5 4 4 4 3 3 3 4 4 3 3 3 3 4 4 3 4 4 4 3 4 4 5 5 4 3 3 2 2 1 2 2 2 2 2 2 2 2 3 3
3 3 2 3 3 4 4 4 3 3 3 3 4 4 4 4 4 5 4 3 3 4 4 4 4 4 5 5 6 5 4 3 3 2 2 3 4 3 2 2 2 2 2
2 2 2 2 4 4 4 3 4 4 3 3 4 4 4 4 4 4 5 3 4 4 4 3 3 3 4 3 4 4 5 5 5 4 4 5 4 4 2 3 3 3 3
1 1 2 2 3 3 4 4 4 3 4 3 3 3 3 3 3 3 3 3 3 4 4 4 4 4 3 3 2 2 3 3 4 4 5 5 5 4 4 3 3 3 3
1 1 2 2 3 3 4 4 3 3 3 3 3 3 3 3 3 3 3 2 3 3 3 3 3 3 4 3 2 3 3 3 3 4 5 4 4 4 3 2 2 2 3
2 2 2 2 2 4 4 3 2 3 3 3 2 3 3 3 2 3 3 2 2 2 2 2 3 3 3 2 3 3 4 4 3 2 2 2 2 2 3 3 3 3 2
1 1 1 2 2 2 2 2 2 2 2 2 2 2 3 3 3 3 4 3 3 3 2 2 2 3 3 3 3 3 4 3 2 2 2 2 2 1 2 2 3 3 3
0 0 1 1 1 1 2 1 2 2 2 2 2 2 2 2 2 3 5 5 4 3 3 2 3 3 3 3 2 3 3 1 1 1 1 2 2 2 2 2 3 3 4
0 0 1 1 1 1 2 2 2 2 2 2 2 2 2 2 2 4 5 6 5 3 3 3 3 3 2 2 2 2 1 1 1 2 2 3 2 3 2 2 2 2 3
1 0 1 1 1 1 1 2 3 3 3 3 3 3 3 2 2 2 2 3 3 3 2 2 2 2 1 2 1 1 1 1 2 2 3 3 2 2 2 2 2 2 2
1 0 1 1 1 1 1 2 4 4 4 4 4 4 4 3 4 4 3 3 3 2 1 0 0 0 1 1 1 1 1 1 2 2 2 3 2 2 2 2 2 2 3
1 1 1 1 1 1 2 2 2 4 5 6 6 6 5 6 5 4 4 4 4 3 3 1 2 2 2 2 1 1 2 2 2 2 3 3 3 3 2 2 2 3 3
2 2 1 2 2 2 2 2 2 2 3 4 5 6 6 5 5 4 4 2 3 4 2 2 3 3 3 2 2 2 3 3 2 3 3 3 3 2 2 3 3 3 3
2 2 2 2 2 2 2 2 2 2 2 2 3 4 4 4 4 3 2 1 1 2 2 3 3 3 3 3 3 2 3 2 2 2 2 2 2 2 3 3 3 3 3
2 2 2 2 2 2 2 2 2 2 2 2 2 2 2 1 1 2 3 2 3 3 3 3 3 3 3 3 3 2 3 3 2 2 2 2 2 2 3 3 3 4 4
2 3 2 2 2 2 2 2 2 2 2 1 2 2 1 0 0 1 1 2 2 3 3 3 3 3 3 3 2 2 2 2 2 2 2 3 3 3 3 4 4 4 4
2 2 1 1 1 1 2 2 2 2 2 2 2 1 1 1 1 1 1 2 2 2 2 2 2 2 2 2 2 2 3 3 3 3 3 3 3 3 3 4 4 4 4
1 1 0 0 0 1 1 1 2 2 2 2 1 1 0 1 1 1 2 2 2 2 2 2 2 2 2 2 2 2 3 3 3 3 3 3 3 3 3 3 3 3 3
1 1 1 0 0 0 1 1 1 1 1 1 1 1 1 1 1 2 2 2 1 1 1 1 2 2 2 2 2 2 3 3 3 3 3 4 3 3 4 4 4 4 4
1 1 0 0 0 0 0 0 1 1 1 1 1 1 1 1 1 2 1 1 1 1 1 1 2 2 3 2 1 2 2 2 3 3 4 4 4 4 4 4 4 4 4
0 0 0 0 0 1 1 1 1 1 1 1 1 1 1 1 1 1 1 1 1 1 1 2 1 2 2 3 2 2 2 2 3 3 3 3 4 4 4 4 4 3 3
1 1 1 1 1 1 1 1 1 1 1 1 1 1 1 1 1 1 1 1 1 1 1 2 2 3 3 2 2 2 2 2 3 3 3 3 4 4 4 4 4 3 2
Wind_Direction
179 178 175 180 179 176 189 201 196 188 179 182 184 184 187 195 186 173 194 192 193 228 239 217 240 233 231 232 214 203 215 204 245 277 273 290 283 300 324 327 323 317 315
179 174 178 176 175 184 200 203 193 188 188 190 187 189 194 196 196 196 209 214 217 230 242 237 248 239 243 239 222 230 235 222 226 269 289 297 290 296 310 318 324 329 319
176 176 177 180 185 195 198 194 187 185 188 192 192 199 204 203 203 211 211 219 226 234 239 238 242 234 249 247 236 238 244 242 229 253 281 289 291 303 315 314 320 324 321
180 182 186 193 195 195 189 185 188 184 187 198 204 210 213 209 209 214 215 222 232 238 240 241 242 234 239 242 242 241 240 244 241 250 273 286 290 300 297 296 312 325 320
185 191 203 199 193 184 181 185 191 193 196 200 203 214 218 212 214 214 219 224 231 246 255 252 248 246 244 237 237 230 224 235 243 254 267 281 283 290 284 287 289 308 308
200 209 204 191 186 186 187 183 186 200 199 193 202 211 219 228 228 220 213 221 230 239 254 264 264 253 254 248 243 234 221 222 228 236 249 257 269 266 267 269 279 294 296
207 223 196 188 191 200 197 185 193 200 196 206 214 211 223 237 232 227 219 213 225 237 247 256 264 267 257 252 253 252 247 244 231 225 240 249 255 247 241 258 259 260 265
195 221 213 198 199 198 192 200 205 200 199 209 222 220 221 239 235 229 222 219 229 239 242 241 245 261 260 245 244 254 258 257 247 236 239 251 254 248 231 238 246 259 274
227 247 235 217 203 197 199 208 206 195 200 204 211 215 218 239 231 222 209 217 237 252 255 251 246 250 265 248 226 246 270 282 281 252 248 258 262 248 225 206 219 232 277
251 257 244 227 217 207 205 206 198 188 197 197 208 217 220 234 237 227 212 208 232 254 268 267 258 256 269 243 224 227 250 269 286 299 298 300 281 251 228 223 220 230 254
257 256 242 221 218 210 198 188 176 180 179 188 213 233 230 231 233 231 216 204 219 233 246 265 272 273 266 256 238 234 245 255 264 265 287 301 301 281 263 247 231 224 237
233 303 277 251 230 189 160 156 153 164 179 206 223 249 257 244 230 239 234 227 218 214 233 248 260 264 262 259 248 252 252 246 230 258 273 283 287 285 282 273 252 240 246
73 351 308 311 287 217 176 170 172 175 187 209 222 241 263 262 246 242 242 241 233 223 237 247 261 263 262 257 250 248 237 208 221 250 261 270 275 281 285 286 284 268 267
151 279 273 261 284 280 194 182 192 203 203 205 216 236 253 258 254 250 246 241 239 239 247 254 255 261 264 254 259 242 238 234 236 252 267 273 276 271 267 269 276 283 285
177 257 294 267 254 254 233 219 215 220 210 206 216 218 223 244 247 235 223 232 227 226 203 219 307 305 296 290 276 267 262 256 259 265 264 271 270 268 270 265 260 267 264
191 251 249 243 251 247 246 273 249 236 237 229 228 223 226 232 243 245 247 245 237 193 159 200 236 244 244 248 255 276 279 271 268 266 261 261 264 266 270 268 259 256 264
207 229 243 240 235 237 234 232 269 287 247 239 242 233 229 234 237 236 240 239 213 173 180 219 233 240 244 244 243 247 261 267 265 256 258 264 264 264 264 266 266 266 268
220 235 237 236 237 236 232 225 222 233 263 284 284 258 245 235 226 224 207 154 198 206 219 224 237 243 244 245 246 251 261 268 263 258 262 264 261 263 263 262 259 266 272
231 246 242 233 229 231 225 220 222 229 243 274 308 308 282 217 165 171 162 186 219 235 237 236 238 241 247 248 249 248 250 256 260 258 261 265 264 265 271 269 265 264 263
254 258 242 229 230 226 214 207 215 219 226 246 268 281 293 82 109 156 190 216 226 237 241 239 240 240 242 244 244 246 252 258 260 257 261 265 264 259 264 270 267 264 261
247 262 250 229 222 216 209 206 208 210 219 231 255 277 241 217 233 235 238 242 239 241 241 242 243 243 240 240 240 245 252 259 262 262 261 265 267 267 268 268 265 262 267
217 204 185 224 247 215 209 218 217 215 224 235 264 317 299 230 229 243 252 261 261 253 242 236 243 251 247 243 241 245 253 260 264 264 266 266 265 265 267 269 271 272 270
130 114 95 70 356 252 246 249 241 230 233 244 265 298 292 271 266 259 262 272 280 281 275 249 242 261 268 259 242 233 242 253 257 258 263 263 261 260 260 264 267 270 270
114 117 88 31 359 303 266 303 280 260 250 271 294 285 269 267 272 278 281 292 296 298 294 285 269 269 282 289 273 259 258 264 263 252 250 255 260 262 262 265 266 264 264
49 49 58 358 340 328 319 299 281 270 268 267 279 286 282 278 276 279 291 302 313 322 323 317 305 296 296 291 287 284 286 275 265 266 257 252 258 262 262 265 265 265 262
32 24 13 5 335 314 314 317 316 279 263 266 263 256 258 262 268 286 303 305 302 310 317 321 326 325 321 305 301 303 294 285 281 275 264 255 256 259 261 260 261 259 260